GEFSSGP_con_cape1000_360.txt.gz
Probability
16 19 26 39 48 13 0 0 0 0 0 0 3 3 3 0 0 3 13 10 13 23 42 45 61 65 68 65 61 61 65 61 61 58 61 65 61 58 55 58 68 61 65 65 65 55 58 55 58
23 26 35 52 16 0 0 0 0 0 0 0 6 6 0 0 3 6 10 16 16 19 32 42 61 65 61 61 58 55 61 55 52 55 58 61 61 58 52 65 58 61 61 61 65 65 55 58 55
23 26 45 19 0 0 0 0 0 0 0 3 6 0 0 3 3 6 10 13 10 26 32 45 58 61 58 65 65 61 61 61 58 52 52 55 58 58 55 55 55 52 48 55 55 52 39 52 52
35 45 32 3 0 0 0 0 0 3 3 3 3 0 3 3 3 10 10 13 16 23 35 45 61 58 55 61 65 61 58 52 52 52 55 55 58 58 58 58 55 48 48 48 52 48 55 65 65
42 32 13 6 0 0 3 0 3 3 3 3 3 0 3 13 16 13 19 19 16 16 32 42 58 55 52 58 52 52 52 58 48 52 58 61 58 58 55 52 55 45 48 48 52 58 58 52 52
42 16 6 0 0 0 3 3 3 3 3 3 3 3 13 19 19 16 16 19 19 16 26 39 52 52 52 52 52 55 55 55 52 45 48 55 52 55 52 58 61 55 55 48 52 52 58 58 39
32 19 6 3 0 3 3 3 6 3 0 3 3 3 13 26 16 16 19 19 13 19 23 32 32 42 42 52 48 55 45 45 45 52 45 45 45 52 48 52 48 48 48 52 52 48 52 45 52
29 23 6 3 0 0 0 3 6 6 6 10 6 3 10 23 19 19 23 23 19 23 23 32 39 45 48 39 42 45 42 42 42 45 42 58 45 45 48 52 55 52 48 52 52 48 55 58 52
29 19 6 0 0 0 0 3 0 6 6 10 13 13 13 19 19 23 29 29 29 26 32 29 35 45 45 39 32 39 48 39 42 48 52 55 48 29 39 42 42 42 45 48 48 48 58 55 48
10 13 0 0 0 0 0 0 0 0 6 10 13 10 19 19 19 23 26 26 23 26 29 32 32 35 45 35 48 48 45 48 58 58 58 61 55 45 29 42 42 39 39 42 42 42 48 39 23
6 6 3 3 0 0 0 0 0 0 6 10 13 16 19 19 19 23 26 26 29 26 32 29 32 35 35 39 39 55 48 58 45 48 65 65 48 35 35 39 39 42 39 32 39 35 16 19 16
6 3 3 10 0 0 6 6 10 10 10 3 10 16 10 13 13 16 19 23 23 26 26 29 32 35 39 42 32 42 42 35 45 52 61 61 58 55 39 42 29 32 42 45 39 48 35 23 26
6 3 3 3 3 6 6 6 6 6 0 0 6 13 10 13 13 19 23 19 23 29 29 29 32 35 45 48 42 32 39 32 39 48 48 55 52 52 39 55 55 32 42 45 45 39 48 45 29
3 3 3 6 6 3 3 0 3 3 3 3 13 13 10 13 13 19 19 19 16 23 32 29 26 35 52 52 55 45 39 55 45 45 48 55 55 52 55 55 61 45 52 52 48 39 42 42 35
0 0 3 3 0 3 0 0 3 3 3 3 13 13 10 10 19 19 26 23 13 19 23 26 26 29 52 52 55 48 42 42 48 52 52 55 45 58 61 58 61 55 48 61 65 52 45 42 39
0 3 0 0 0 0 0 0 3 6 3 3 10 16 19 23 16 23 23 23 16 19 35 32 10 26 45 52 48 45 45 42 42 42 52 52 52 52 61 55 52 55 55 58 65 52 39 52 45
0 0 0 3 3 3 3 3 6 6 6 3 16 16 19 19 26 23 23 23 19 32 45 48 45 42 45 52 58 48 48 48 45 52 52 48 55 58 45 52 48 48 45 48 35 42 48 48 48
0 0 0 3 3 3 0 3 6 6 3 3 10 19 19 26 26 29 29 19 29 45 52 55 48 52 48 61 65 55 52 42 52 52 52 48 48 48 42 42 45 52 55 55 55 61 58 68 68
0 0 3 10 3 6 3 3 6 3 10 10 13 23 26 26 29 32 35 32 32 52 55 61 55 61 65 61 58 58 45 48 39 48 48 48 52 42 52 45 52 48 52 58 48 52 52 55 58
0 0 3 6 3 3 3 3 6 3 10 10 13 19 23 26 29 35 42 42 42 55 58 61 65 61 55 65 65 61 58 48 42 39 45 45 48 45 39 52 48 55 55 58 52 52 52 48 52
0 0 3 10 6 3 0 6 10 10 3 13 16 13 13 23 19 29 39 42 42 48 55 48 61 58 58 61 61 58 58 55 45 45 45 48 45 45 48 48 45 55 52 52 55 52 55 52 52
0 0 3 6 10 6 6 3 10 10 19 10 16 13 13 16 23 26 32 45 48 48 52 65 71 68 71 68 61 58 58 48 55 55 48 52 52 48 48 48 45 45 45 52 48 48 55 55 48
0 0 6 3 0 0 0 0 10 13 13 6 13 19 16 23 19 23 32 45 48 48 48 55 68 74 74 71 61 65 55 45 48 45 48 55 55 58 48 52 42 45 45 45 45 48 48 48 48
0 3 3 3 0 0 0 0 3 6 3 6 16 19 16 23 26 29 35 39 48 48 52 52 65 71 71 61 65 61 58 52 52 52 45 45 42 42 42 42 39 42 39 42 52 52 48 48 52
0 0 0 0 0 0 3 3 3 6 0 6 16 19 23 26 26 29 39 45 52 55 55 55 71 68 74 65 58 52 52 48 58 48 48 48 39 35 45 39 48 42 45 42 42 42 42 42 48
0 0 0 0 0 0 0 3 6 6 6 10 19 23 26 29 32 35 35 48 52 52 58 61 74 74 71 68 58 55 48 42 45 45 45 39 32 32 39 45 45 42 39 39 39 35 39 42 48
0 0 0 0 0 0 0 3 6 10 16 13 26 29 32 32 35 39 35 39 42 39 48 48 55 58 61 61 61 61 55 52 48 42 42 39 39 35 45 45 45 42 39 39 42 42 39 42 45
0 0 0 0 0 0 0 3 3 19 23 19 29 32 35 32 42 42 39 35 42 42 45 35 39 52 52 55 55 48 58 52 45 48 48 45 42 45 42 48 45 45 45 42 42 42 32 35 35
0 0 0 0 0 0 0 3 6 19 19 23 29 35 32 29 39 39 42 45 42 35 39 39 35 39 48 48 52 45 52 52 48 48 48 48 45 45 45 45 45 42 39 39 39 39 32 35 39
0 0 0 0 0 0 0 3 6 19 23 23 29 29 35 42 39 35 35 35 39 35 32 32 39 35 39 45 45 45 45 42 42 42 48 48 42 42 42 39 39 39 39 42 39 35 32 35 35

GEFSSGP_con_cape1000_366.txt.gz
Probability
19 19 35 71 65 42 3 0 3 3 3 0 0 0 0 0 3 16 13 23 42 52 48 68 74 68 71 71 74 71 71 71 71 61 61 65 58 55 52 58 58 52 45 48 45 42 45 45 42
16 32 52 65 52 3 0 3 6 3 0 0 0 0 0 3 3 13 13 29 35 42 42 52 71 68 68 65 68 68 71 71 71 65 58 61 58 58 58 55 55 52 48 48 55 48 45 42 42
32 55 65 65 26 3 0 3 0 0 0 0 0 0 0 3 3 6 16 29 35 45 52 65 71 61 55 52 52 58 58 55 58 58 61 65 55 61 61 55 45 45 48 45 48 45 35 39 45
58 65 55 39 6 3 0 6 0 0 0 0 0 0 3 3 3 10 16 26 26 35 45 65 68 61 55 52 52 52 52 58 55 55 55 58 61 61 55 55 48 45 52 48 48 45 45 42 42
65 61 39 16 3 0 3 0 0 0 0 0 0 3 10 10 10 13 16 26 32 35 39 42 68 61 55 55 55 48 48 52 58 58 52 55 58 58 52 42 42 48 45 52 48 48 45 45 45
61 48 23 3 0 0 0 0 0 0 0 3 3 6 10 13 13 13 13 23 32 29 32 39 65 61 61 55 55 52 52 52 48 42 45 42 42 42 48 48 45 48 45 42 48 52 48 45 45
48 32 16 6 0 0 0 0 3 0 0 3 3 13 6 6 13 13 16 16 19 23 32 39 45 65 65 61 58 55 48 48 48 45 45 42 48 48 48 48 48 52 55 48 55 52 52 52 55
19 23 13 0 0 0 0 0 3 3 3 3 3 10 13 13 16 16 16 19 23 32 42 45 45 48 48 48 52 58 52 52 52 48 48 48 48 48 48 55 58 52 52 58 61 58 58 61 58
10 19 10 0 0 0 0 0 0 3 6 10 13 13 13 13 13 19 23 23 29 32 45 48 39 52 52 42 42 58 55 52 52 48 61 52 52 48 58 48 58 52 52 55 58 55 55 61 55
10 10 0 0 0 0 0 0 0 0 6 6 13 16 16 16 16 19 23 23 29 29 29 35 42 48 52 45 48 52 52 61 71 74 68 68 58 55 35 55 52 45 48 52 55 65 61 52 35
3 0 3 0 0 0 0 0 0 3 3 3 16 16 16 16 16 19 19 23 26 29 32 35 39 58 55 58 55 55 58 74 71 68 68 68 61 52 42 42 42 52 42 45 48 48 42 45 45
0 0 0 0 0 0 0 0 0 0 0 0 10 16 13 13 13 13 16 23 23 23 32 32 39 39 65 61 55 58 52 58 42 61 58 65 61 61 58 55 42 45 52 61 55 48 52 55 52
0 3 0 0 3 3 3 3 0 0 0 3 10 10 10 13 13 13 16 23 32 32 35 39 45 55 52 68 74 48 58 52 45 61 65 65 65 68 65 61 58 65 61 65 68 58 58 61 48
0 0 0 0 0 6 3 0 3 0 6 6 3 6 6 13 13 13 23 29 32 32 39 45 52 65 68 61 65 71 61 71 61 58 61 61 61 68 61 68 68 65 71 68 68 58 61 61 61
0 0 0 0 0 3 6 0 0 3 3 3 6 13 10 10 13 16 19 26 26 35 48 48 55 58 68 61 61 61 58 55 65 68 65 61 61 65 74 77 71 71 65 65 61 58 58 61 55
0 0 0 0 3 0 6 3 0 3 3 6 3 6 10 13 10 13 23 29 42 52 58 48 35 58 71 68 65 58 48 48 61 58 58 61 58 55 74 71 65 71 68 65 61 65 65 61 61
0 0 0 0 0 0 6 3 3 0 3 6 3 10 13 13 13 23 19 23 48 58 58 58 58 55 68 65 65 65 58 58 61 61 55 58 58 61 68 71 74 71 74 65 61 61 61 55 58
0 0 0 0 3 3 3 3 0 0 3 3 6 13 13 16 19 19 19 29 45 55 71 68 68 71 74 74 68 68 68 58 61 61 65 58 61 65 68 74 61 61 68 71 68 68 61 61 58
0 0 0 0 3 3 6 6 3 3 3 3 13 23 26 26 23 26 26 35 48 58 68 71 71 77 81 77 71 68 65 65 58 58 58 58 61 68 71 65 65 71 71 71 68 68 61 58 61
0 0 0 0 3 3 6 10 6 3 6 13 16 23 26 29 32 39 39 35 52 61 77 84 81 77 81 84 71 68 68 65 58 55 58 65 68 61 55 74 61 71 77 65 68 68 71 68 65
0 0 0 0 3 3 3 6 6 3 6 10 13 19 23 29 26 29 45 52 52 61 74 55 77 81 84 77 65 65 71 65 58 58 61 55 58 65 68 65 65 68 61 71 68 68 61 68 68
0 0 0 0 0 3 3 0 19 13 3 10 10 13 19 26 32 39 42 55 52 55 68 81 81 81 81 77 61 65 58 58 58 58 58 58 58 55 55 68 65 68 58 71 58 58 65 61 61
0 0 0 0 3 3 0 0 10 10 10 19 16 13 23 26 42 42 55 55 52 52 58 68 71 81 81 77 71 65 55 55 61 68 61 61 58 58 58 58 61 58 55 61 58 55 58 55 55
0 0 0 3 3 3 0 0 10 10 13 16 13 13 29 39 48 52 52 65 58 52 55 58 71 74 77 74 74 68 61 55 61 65 58 55 55 52 55 52 52 55 55 55 55 61 55 55 58
0 0 0 0 0 0 0 0 10 13 13 13 19 16 26 32 35 42 55 61 61 48 48 61 74 74 71 74 74 74 65 61 58 58 52 52 42 48 48 45 48 48 48 52 52 48 45 52 55
0 0 0 0 0 0 0 3 3 3 3 16 16 19 23 26 32 35 48 58 52 55 55 61 71 74 71 74 77 74 65 58 55 58 55 55 48 39 48 45 45 48 48 45 48 52 45 52 58
0 0 0 0 0 0 0 6 13 6 6 26 23 26 35 32 35 48 42 39 45 48 61 58 61 71 71 71 71 68 61 61 61 61 61 58 52 42 48 48 45 45 45 48 45 45 52 45 48
0 0 0 0 10 0 0 10 16 16 19 19 26 32 32 32 32 42 52 52 52 52 52 55 61 68 71 71 61 58 65 68 61 61 65 61 55 55 48 45 42 42 42 42 45 45 52 45 48
0 0 0 0 3 0 0 6 13 16 13 16 19 23 26 26 35 42 52 52 52 52 45 58 61 68 68 61 68 61 61 58 58 52 55 52 55 55 48 45 45 45 42 45 42 35 42 42 39
0 0 0 0 10 3 3 3 10 13 13 19 13 16 19 29 32 35 42 45 45 45 45 45 52 52 55 65 58 52 52 52 45 45 42 48 52 52 45 45 45 45 42 42 39 39 35 39 39

GEFSSGP_con_cape1000_372.txt.gz
Probability
26 13 13 23 19 6 0 0 0 0 0 0 0 0 3 6 6 10 13 19 23 45 61 81 90 84 81 77 71 74 77 74 77 77 77 71 68 68 65 61 74 74 68 65 55 55 55 61 61
6 6 19 16 13 3 0 0 0 0 0 0 0 0 3 13 13 16 19 23 26 35 32 52 84 77 74 71 71 68 71 71 74 74 61 58 61 65 58 58 65 65 61 61 52 52 48 52 65
13 16 26 19 10 3 0 0 0 0 0 0 0 3 3 10 16 16 19 19 19 23 32 61 84 81 74 71 71 68 68 61 65 71 71 61 58 58 58 65 65 61 61 61 52 45 48 48 52
23 26 23 10 6 3 3 0 0 0 0 0 0 3 0 6 13 19 19 19 19 26 35 55 81 84 81 68 68 68 65 68 65 68 68 58 55 58 61 55 48 48 52 58 61 48 45 52 52
19 32 26 10 3 3 3 0 0 0 0 0 0 3 3 10 16 23 16 13 16 23 35 55 77 77 81 77 65 65 65 61 61 65 68 61 61 58 58 55 55 61 65 68 55 52 48 48 48
26 16 13 0 0 0 0 0 0 0 0 0 0 0 3 10 23 26 19 16 16 32 42 58 77 77 71 71 71 65 61 58 61 65 68 68 61 65 65 65 61 55 58 61 55 61 61 52 55
26 16 6 0 3 0 0 0 0 0 0 0 0 0 10 10 19 26 26 26 19 29 32 52 61 68 71 68 68 68 65 58 61 55 58 52 58 68 68 65 65 58 61 58 61 65 68 65 61
19 6 6 0 0 0 0 0 0 0 0 0 0 6 10 10 16 23 19 13 23 16 23 26 29 39 48 58 65 65 68 58 55 52 45 48 52 58 61 58 58 55 55 65 68 61 65 68 65
23 10 3 0 0 0 0 0 0 3 3 3 6 10 10 10 10 13 10 19 16 16 16 16 23 23 26 35 52 55 55 52 48 45 48 52 32 32 35 45 55 61 68 65 68 65 58 55 61
13 3 3 0 0 0 0 0 0 3 3 10 10 6 6 10 10 10 6 16 16 16 16 16 19 23 23 29 32 32 39 39 39 29 35 23 13 16 32 52 55 61 61 61 61 55 58 58 35
10 3 3 0 0 0 0 0 0 0 3 3 10 6 10 6 6 10 10 10 13 6 13 16 19 16 13 16 19 16 16 23 23 19 13 10 13 10 23 26 39 42 48 39 48 45 35 29 26
3 3 0 0 0 0 0 0 0 0 3 3 10 10 6 6 6 10 10 10 13 10 13 10 6 6 10 6 10 3 10 16 19 16 19 10 13 6 6 10 13 16 23 23 13 13 16 13 10
3 3 0 0 0 0 0 0 0 0 3 3 3 10 6 6 6 10 10 16 13 10 16 19 19 10 6 6 10 13 13 19 16 19 19 19 16 10 6 16 13 16 13 10 10 13 16 13 10
0 0 0 0 0 0 0 0 0 3 3 3 3 10 10 6 10 10 10 16 16 16 16 19 16 13 10 13 16 16 13 19 16 16 23 19 10 10 10 13 13 10 13 13 13 10 13 13 10
0 0 0 0 0 0 0 0 0 3 3 3 3 6 10 10 10 10 10 16 16 16 19 13 16 13 10 13 23 19 16 19 23 19 23 19 19 6 6 13 13 13 13 19 16 16 19 19 13
0 0 0 0 0 0 0 0 0 0 0 0 3 6 10 10 10 10 13 19 16 16 23 19 26 13 13 19 23 19 19 16 16 13 13 16 19 10 10 16 13 16 19 19 19 19 19 16 16
0 0 0 0 0 0 0 3 3 0 3 3 6 13 13 13 13 13 13 23 19 19 23 23 19 23 26 29 23 19 19 19 16 16 26 16 13 29 19 16 13 13 19 16 23 23 19 16 16
0 0 0 0 0 0 0 0 0 0 3 6 6 13 16 16 13 10 13 26 26 16 23 29 23 23 29 32 26 23 19 19 23 13 19 19 16 26 26 23 16 13 16 19 19 16 23 19 19
0 0 0 0 0 0 0 0 0 0 3 10 10 16 16 13 10 10 19 26 16 13 16 16 19 23 19 35 32 29 19 16 16 16 19 16 16 19 23 23 16 10 19 23 19 19 19 23 13
0 0 0 0 0 0 0 0 0 0 6 3 10 10 16 13 16 13 13 19 23 26 16 19 19 26 32 29 35 32 26 19 16 16 23 19 19 19 23 19 16 16 23 26 26 19 19 23 23
0 0 0 0 0 0 0 0 0 0 0 3 6 13 16 13 16 19 23 26 29 29 29 26 23 26 32 32 35 39 35 26 23 26 26 26 29 23 19 19 16 16 16 19 16 19 19 23 19
0 0 0 0 0 0 0 0 0 0 0 0 10 13 16 19 10 19 19 23 29 29 32 26 32 29 32 26 32 32 32 29 23 19 19 19 26 23 19 19 19 16 16 19 23 26 23 26 23
0 0 0 0 0 0 0 0 0 0 0 3 6 13 10 16 13 6 13 19 29 35 39 32 35 29 32 32 35 32 32 23 19 19 23 23 23 26 23 19 16 16 16 23 26 26 29 26 23
0 0 0 0 0 0 0 0 0 0 0 0 3 10 13 19 13 10 13 16 19 32 32 32 29 26 35 35 39 35 26 23 23 19 16 19 26 26 26 23 23 19 23 19 23 26 26 26 29
0 0 0 0 0 0 0 0 0 0 0 0 6 13 13 13 10 13 16 13 16 23 23 19 32 29 32 32 29 32 26 23 19 19 26 26 26 26 23 23 23 23 29 29 29 29 29 23 23
0 0 0 0 0 0 0 0 0 0 0 6 6 13 13 10 10 13 13 16 19 23 29 26 26 26 29 35 32 26 19 23 23 23 26 26 29 29 19 19 19 23 26 26 29 29 23 23 19
0 0 0 0 0 0 0 0 0 0 0 0 6 10 10 10 10 13 16 16 19 23 26 26 23 23 23 26 26 19 19 16 23 23 23 26 29 29 29 16 19 23 26 26 26 19 19 19 19
0 0 0 0 0 0 0 0 0 0 0 0 3 13 10 6 10 13 16 16 19 13 16 23 26 26 19 16 19 19 19 19 23 23 23 26 23 29 29 19 19 13 13 16 13 13 13 13 16
0 0 0 0 0 0 0 0 0 0 0 0 3 0 3 10 6 10 13 13 10 13 19 26 19 16 13 13 16 19 19 19 23 23 19 19 19 19 23 19 16 16 13 13 13 13 10 10 10
0 0 0 0 0 0 0 0 3 3 3 3 0 3 3 3 3 10 13 13 10 13 16 19 13 13 10 13 23 19 23 23 19 23 19 19 16 19 19 19 19 16 16 13 13 16 13 13 13

GEFSSGP_con_cape1000_378.txt.gz
Probability
13 13 10 10 10 0 0 0 0 0 0 0 0 0 3 3 0 0 10 10 16 23 42 74 71 68 74 74 71 74 74 71 74 74 77 71 65 65 68 65 65 52 52 52 45 42 42 45 48
13 16 6 3 0 0 0 0 0 0 0 0 0 0 3 10 13 16 13 13 23 29 32 58 74 68 68 68 71 71 71 68 77 77 84 77 71 74 65 65 65 61 58 48 45 48 39 42 52
6 13 10 3 0 0 0 0 0 0 0 0 0 0 6 10 13 16 16 16 16 19 23 39 81 71 68 71 74 74 74 74 71 74 77 77 74 68 68 65 65 55 52 48 48 48 42 39 61
10 10 6 0 0 0 0 0 0 0 0 0 0 0 3 10 13 16 13 16 13 13 23 45 71 61 58 68 71 68 68 68 68 71 68 71 68 68 65 65 55 58 55 52 52 52 52 55 55
10 10 3 0 0 3 3 0 0 0 0 0 0 0 3 13 19 16 16 19 13 13 26 42 71 68 58 68 68 65 65 68 65 68 68 61 61 61 58 52 52 61 58 52 55 52 52 58 48
3 6 6 0 0 0 0 0 0 0 0 0 0 0 3 23 16 16 16 23 26 26 26 35 68 71 65 65 68 65 61 58 61 61 58 58 58 58 55 48 61 61 61 55 52 42 48 48 48
3 13 6 3 0 0 0 0 0 0 0 0 0 0 3 23 19 13 13 13 19 19 19 29 42 61 68 65 65 65 65 65 58 52 58 65 58 52 55 55 58 58 58 52 42 45 45 52 55
6 10 3 3 0 0 0 0 0 0 0 3 3 3 3 13 16 13 13 13 16 19 16 19 29 29 29 35 48 52 55 52 52 45 48 48 52 48 58 52 55 58 61 58 48 52 55 55 61
10 6 3 0 0 0 0 0 0 0 0 0 0 0 6 16 16 16 13 16 16 16 19 19 23 19 23 29 35 45 45 48 45 39 42 42 26 16 29 42 52 52 52 61 58 55 55 52 48
6 3 3 0 0 0 0 0 0 0 0 0 0 3 16 19 16 16 16 13 16 16 16 19 19 19 19 26 23 26 39 39 26 19 23 26 16 16 19 45 45 52 48 55 58 58 48 45 42
3 0 0 0 0 0 0 0 0 0 0 0 0 0 16 16 16 13 13 10 6 13 16 16 19 19 23 19 16 19 16 16 19 16 10 6 10 10 10 16 23 29 32 29 39 35 32 35 26
3 3 3 3 0 0 0 0 0 0 0 0 0 0 13 13 13 10 10 10 13 13 13 16 16 16 13 10 10 6 0 3 6 3 3 0 3 3 3 13 13 16 23 23 23 23 16 16 19
3 3 0 0 0 0 0 0 0 0 0 3 0 3 16 13 13 10 10 6 10 10 13 13 13 13 6 0 3 6 3 0 3 0 3 3 3 3 6 3 6 3 3 3 3 10 13 16 10
3 3 0 0 0 0 0 0 0 0 3 3 0 3 13 16 10 10 6 6 3 6 6 10 10 6 3 0 0 0 3 0 0 0 0 3 0 3 6 6 6 6 6 6 10 13 16 16 13
0 0 0 0 0 0 0 0 0 0 3 3 0 0 10 13 13 6 6 6 3 3 6 10 13 3 0 0 0 0 3 3 0 0 0 0 0 3 6 6 3 6 6 10 16 16 19 19 19
0 0 0 0 0 0 0 0 0 0 3 6 6 3 6 6 6 10 6 6 6 3 6 6 10 6 0 0 0 0 3 3 0 0 3 6 13 13 6 6 10 6 13 10 16 19 23 19 19
0 0 0 0 0 0 0 0 0 0 3 3 6 6 3 6 6 13 16 13 6 3 0 3 3 6 0 0 0 3 3 3 3 3 6 10 10 10 6 6 6 10 13 16 23 26 23 23 19
0 0 0 0 0 0 0 0 0 0 3 3 6 6 6 10 10 13 13 10 6 6 3 6 0 0 3 3 3 3 3 6 6 10 10 6 16 10 6 6 10 13 16 19 19 23 19 16 16
0 0 0 0 0 0 0 0 0 0 0 3 0 0 3 6 10 13 16 13 6 6 3 0 0 0 3 3 3 13 16 13 19 23 16 19 23 23 10 10 16 13 16 16 16 19 16 13 10
0 0 0 0 0 0 0 0 0 0 0 3 0 3 3 10 6 13 10 6 6 10 10 3 0 3 6 6 6 10 10 10 16 13 13 16 16 19 19 10 16 13 13 13 10 3 6 6 6
0 0 0 0 0 0 0 0 0 0 0 0 3 3 3 6 10 10 10 6 6 10 10 10 6 6 6 10 13 13 16 16 13 13 13 19 23 19 16 10 10 10 13 13 10 10 6 6 10
0 0 0 0 0 0 0 0 0 0 0 0 3 3 3 3 6 10 10 6 6 10 6 10 10 6 6 13 13 16 13 16 16 10 6 10 16 19 19 19 13 13 10 10 10 13 10 10 16
0 0 0 0 0 0 0 0 0 0 0 0 3 6 10 6 10 10 10 10 3 10 10 6 6 6 6 10 10 13 10 13 10 6 6 3 10 16 19 19 16 13 13 13 13 13 10 16 16
0 0 0 0 0 0 0 0 0 0 0 0 3 10 10 6 6 6 6 6 6 10 6 6 6 6 6 10 13 13 10 10 10 10 13 13 10 10 16 19 13 13 13 10 10 13 16 16 16
0 0 0 0 0 0 0 0 0 0 0 0 0 6 10 10 3 3 6 6 6 10 10 6 3 3 6 10 13 13 13 6 6 13 13 10 13 10 10 16 13 13 6 10 10 13 19 16 16
0 0 0 0 0 0 0 0 0 0 0 3 6 6 10 6 3 10 10 10 6 10 10 6 6 6 6 10 10 13 13 10 3 3 6 10 10 10 13 16 10 10 13 10 10 13 10 10 10
0 0 0 0 0 0 0 0 0 0 3 6 6 6 10 6 3 3 6 10 10 10 10 6 6 6 10 10 10 6 3 3 6 6 6 6 6 13 16 16 13 13 6 6 10 10 10 10 10
0 0 0 0 0 0 0 0 0 3 3 3 10 10 6 3 0 0 0 3 6 6 6 0 3 6 6 6 6 6 6 3 0 3 3 0 6 6 3 13 13 10 10 3 3 10 13 13 10
0 0 0 0 0 0 0 0 3 3 0 0 3 6 6 6 0 0 0 6 10 6 6 3 6 6 6 3 3 6 3 3 3 3 6 6 6 6 6 3 3 6 6 10 6 6 6 6 10
0 0 0 0 0 0 0 0 3 3 0 0 3 6 6 6 0 0 6 10 6 6 6 10 6 6 6 6 10 6 3 3 3 3 3 3 6 6 3 6 3 6 10 10 10 10 10 10 10

GEFSSGP_con_cape1000_384.txt.gz
Probability
10 23 26 35 48 10 0 0 0 3 0 0 0 0 0 3 3 16 26 23 26 32 52 61 68 65 65 61 74 81 81 74 65 71 71 71 68 68 58 52 45 42 42 39 39 39 42 45 48
19 19 35 39 10 0 0 0 0 3 0 0 0 0 0 0 3 13 23 26 23 26 45 48 55 65 68 68 74 77 74 71 68 65 65 65 65 61 55 58 45 45 45 42 42 42 42 42 48
26 23 42 16 3 0 0 0 3 3 0 0 0 0 3 3 3 16 29 23 23 19 42 61 65 61 68 71 71 77 77 68 65 61 61 65 58 58 58 58 52 48 42 45 45 48 45 48 55
23 29 26 6 3 3 3 3 3 3 0 0 0 0 3 10 10 19 26 16 13 16 26 58 68 68 71 71 74 74 68 68 68 65 61 61 61 58 55 52 48 48 52 52 48 48 45 48 58
39 35 23 6 3 0 0 0 3 0 0 0 0 0 3 13 16 16 16 16 19 26 32 52 71 65 65 65 71 71 68 65 61 58 61 55 55 52 55 52 55 52 55 48 39 42 42 48 52
35 23 10 0 0 0 0 0 3 0 0 0 0 0 6 29 23 23 23 29 26 19 35 48 68 61 61 58 61 61 65 65 58 48 48 55 48 45 48 48 58 58 52 48 42 42 39 42 42
35 23 6 0 0 0 0 0 0 0 0 0 0 0 10 23 26 26 29 32 29 29 26 39 39 45 48 52 48 52 52 48 42 39 42 35 35 35 35 42 45 42 45 52 55 39 39 39 52
39 26 6 0 0 0 0 0 0 0 0 0 0 0 6 23 19 23 29 29 29 35 29 32 45 52 45 48 52 52 45 45 42 39 32 32 35 32 35 42 42 39 35 52 42 42 45 42 48
29 19 0 0 0 0 0 0 0 0 0 0 0 0 3 19 16 23 32 32 26 26 39 35 35 55 52 55 35 48 45 45 39 32 32 29 29 23 32 23 42 45 42 42 39 42 45 45 39
23 13 0 0 0 0 0 0 0 0 0 0 3 10 16 19 16 19 19 29 23 26 35 39 42 48 48 35 52 45 45 42 35 42 42 45 55 52 19 39 48 45 42 45 42 39 42 35 29
16 6 6 6 0 0 0 0 0 0 0 0 0 10 16 19 19 16 19 19 19 26 23 29 45 52 48 48 42 45 42 45 42 45 58 65 55 45 29 35 42 39 39 42 42 39 42 26 23
13 6 6 3 0 0 0 0 0 0 0 0 0 3 13 19 19 19 16 19 29 23 26 29 35 55 55 48 42 42 39 42 42 52 61 52 52 52 39 52 39 45 42 45 39 45 42 29 26
6 6 3 0 0 0 0 0 0 0 0 3 6 6 6 13 19 23 23 16 23 35 29 26 39 48 55 48 48 39 45 42 42 55 45 48 39 42 39 45 52 48 48 42 52 48 45 45 35
3 3 6 3 3 0 0 0 0 0 0 3 10 13 10 10 23 26 23 29 23 29 29 35 45 45 58 65 61 52 45 61 42 45 48 52 42 42 45 52 52 52 58 55 55 48 48 48 42
0 0 0 3 3 3 0 0 0 0 3 3 13 13 16 16 29 29 26 32 32 35 32 45 35 52 55 58 55 52 52 45 52 48 58 55 48 52 55 48 48 55 48 58 58 58 55 48 45
0 0 0 0 3 0 0 0 0 3 0 6 13 13 16 23 26 26 26 32 39 42 52 55 32 48 55 55 61 45 48 52 45 45 48 55 45 55 58 58 52 45 55 55 58 58 55 58 52
0 0 0 0 0 0 0 0 0 3 0 3 19 16 19 23 23 26 26 26 45 48 52 58 48 55 52 48 55 48 52 52 42 42 39 48 55 48 52 52 55 48 52 52 52 52 52 55 58
0 0 0 0 0 0 0 0 6 10 6 6 19 23 19 19 29 35 29 29 35 48 61 68 68 68 65 55 52 52 55 52 48 48 45 52 52 45 55 55 55 52 52 48 52 58 65 65 68
0 0 0 0 0 0 0 6 6 16 10 10 16 26 29 29 32 29 35 32 32 45 58 65 71 74 68 52 52 48 45 48 48 48 45 45 52 52 61 45 52 55 48 48 45 52 52 55 61
0 0 0 0 0 0 0 6 10 16 19 16 16 26 26 26 32 39 39 35 35 55 58 58 65 61 65 61 58 58 58 55 45 39 48 52 48 48 39 58 42 52 55 58 55 55 58 55 55
0 0 0 0 3 0 0 13 10 19 19 19 19 29 29 32 35 35 39 32 32 48 55 48 61 58 61 58 45 42 52 52 45 45 52 58 55 52 48 48 48 52 42 45 58 58 55 55 55
0 0 0 0 3 0 6 0 10 16 19 16 19 23 39 32 39 39 39 45 39 39 42 52 65 65 58 55 45 45 48 45 45 55 48 45 42 45 45 45 45 45 32 39 45 35 58 58 52
0 0 0 0 0 0 0 3 6 13 19 23 26 29 29 29 35 42 39 52 35 39 39 52 61 68 65 61 65 61 42 45 42 52 52 48 45 48 42 48 48 48 42 42 39 52 55 55 45
0 0 3 3 0 0 0 0 3 6 10 16 26 23 32 32 29 29 39 42 35 35 39 42 55 65 65 61 52 52 52 52 55 52 45 45 42 45 39 32 39 42 42 45 45 52 55 55 55
0 0 0 0 3 0 0 0 3 10 10 10 23 19 29 35 29 35 32 32 35 32 32 32 52 61 58 55 52 42 45 45 45 45 48 45 35 39 45 29 42 42 45 45 45 48 48 52 52
0 0 0 0 0 0 0 3 3 16 19 10 23 26 32 32 32 29 29 19 23 26 26 26 48 55 58 55 52 48 52 42 39 42 35 39 32 32 32 42 42 39 32 32 39 35 42 42 39
0 0 0 0 0 0 0 3 6 19 26 23 19 19 26 26 23 26 26 26 26 19 23 26 39 48 52 48 48 45 45 48 42 39 39 26 32 19 23 26 26 26 26 32 35 32 39 35 26
0 0 0 0 0 0 0 0 3 19 29 19 26 26 23 26 26 23 32 29 35 32 29 32 39 39 42 35 42 26 42 45 42 39 32 32 29 29 26 23 19 26 23 26 29 26 29 29 32
0 0 0 0 0 0 0 3 3 19 26 23 19 29 29 29 26 29 35 39 39 32 32 35 39 35 39 35 32 32 29 29 32 32 35 29 32 29 23 19 19 16 19 19 19 19 23 23 19
0 0 0 0 0 0 0 3 3 10 13 16 19 29 29 26 23 23 23 26 35 39 39 39 32 32 35 35 35 29 29 26 26 29 29 26 29 29 29 23 23 10 10 13 16 16 16 16 19